Regional Weather Roundup
Issued by NWS

Home | Current Version | Previous Version | Text Only | Print | Product List | Glossary On
Versions: 1 2 3 4 5 6 7 8 9 10 11 12 13 14 15 16 17 18 19 20 21 22 23 24 25 26 27 28 29 30 31 32 33 34 35 36 37 38 39 40 41 42 43 44 45 46 47 48 49 50
000
ASUS44 KLIX 221810
RWRLA
LOUISIANA WEATHER ROUNDUP
NATIONAL WEATHER SERVICE NEW ORLEANS LA
100 PM CDT FRI AUG 22 2014

NOTE: "FAIR" INDICATES FEW OR NO CLOUDS BELOW 12,000 FEET WITH NO
      SIGNIFICANT WEATHER AND/OR OBSTRUCTIONS TO VISIBILITY.
      SKY/WX - SKY CONDITION AND SIGNIFICANT WEATHER.
      TMP - AIR TEMPERATURE.    DP   - DEWPOINT TEMPERATURE.
      RH  - RELATIVE HUMIDITY.  PRES - PRESSURE.
      HX  - HEAT INDEX.         WCI  - WIND CHILL INDEX.

*  THESE STATIONS ARE NOT NWS OR FAA STATIONS AND ARE NOT UNDER
   NWS QUALITY CONTROL.

LAZ040-048-061>063-065-066-069-221900-
SOUTHEAST LOUISIANA

CITY           SKY/WX    TMP DP  RH WIND       PRES   REMARKS
N.O. AUDUBON     N/A     93  76  57 MISG        N/A  HX 105
6HR MIN TEMP:  78; 6HR MAX TEMP:  94;

N.O. INTL ARPT MOSUNNY   91  73  55 NE6       30.11F HX  99
6HR MIN TEMP:  75; 6HR MAX TEMP:  91;

N.O. LAKEFRONT SUNNY     87  75  67 W5        30.12F HX  96
6HR MIN TEMP:  81; 6HR MAX TEMP:  88;

N.O. DOWNTOWN* FAIR      90  72  55 CALM      30.11F HX  96
6HR MIN TEMP:  81; 6HR MAX TEMP:  91;

SLIDELL        SUNNY     93  74  53 N3        30.09F HX 103
6HR MIN TEMP:  73; 6HR MAX TEMP:  93;

BATON ROUGE    MOSUNNY   91  72  53 W3        30.10F HX  98
6HR MIN TEMP:  74; 6HR MAX TEMP:  92;

BOOTHVILLE     SUNNY     90  76  63 N6        30.12F HX 101
6HR MIN TEMP:  82; 6HR MAX TEMP:  90;

BELLE CHASSE   PTSUNNY   92  71  50 NE7       30.10F HX  98
6HR MIN TEMP:  73; 6HR MAX TEMP:  93;

BOGALUSA*      FAIR      93  73  52 NE5       30.12F HX 101
6HR MIN TEMP:  74; 6HR MAX TEMP:  93;

GALLIANO*      NOT AVBL
NEW ROADS*     FAIR      90  72  55 NW3       30.10F HX  96
6HR MIN TEMP:  72; 6HR MAX TEMP:  90;

GONZALES*      MOCLDY    91  77  63 CALM      30.10F HX 104
6HR MIN TEMP:  74; 6HR MAX TEMP:  91;

HAMMOND*       SUNNY     93  72  49 W5        30.12F HX 100
HOUMA*         MOSUNNY   93  70  46 N5        30.10F HX  99
PORT FOURCHON* PTCLDY    90  75  62 NE7       30.12F HX 100

$$

LAZ041-044-053-054-221900-
SOUTHWEST LOUISIANA

CITY           SKY/WX    TMP DP  RH WIND       PRES   REMARKS
LAKE CHARLES   SUNNY     91  73  55 VRB3      30.08F HX  99
6HR MIN TEMP:  76; 6HR MAX TEMP:  91;

LAFAYETTE      MOSUNNY   92  74  55 CALM      30.10F HX 101
6HR MIN TEMP:  74; 6HR MAX TEMP:  92;

PATTERSON      SUNNY     91  75  59 NE5         N/A  HX 102
6HR MIN TEMP:  73; 6HR MAX TEMP:  91;

SALT POINT       N/A     91  77  63 VRB3      30.09F HX 104
6HR MIN TEMP:  80; 6HR MAX TEMP:  92;

NEW IBERIA     PTSUNNY   91  72  53 NW6       30.10F HX  98
6HR MIN TEMP:  74; 6HR MAX TEMP:  93;

CHENAULT AIRPK PTSUNNY   90  72  55 CALM      30.09F HX  96

$$

LAZ027-028-221900-
CENTRAL LOUISIANA

CITY           SKY/WX    TMP DP  RH WIND       PRES   REMARKS
FORT POLK      MOSUNNY   89  73  59 VRB7      30.10F HX  97
6HR MIN TEMP:  74; 6HR MAX TEMP:  89;

ALEXANDRIA INT PTSUNNY   89  74  60 CALM      30.08F HX  98
6HR MIN TEMP:  74; 6HR MAX TEMP:  91;

ALEXANDRIA     MOSUNNY   90  73  57 W6        30.10F HX  98
6HR MIN TEMP:  75; 6HR MAX TEMP:  91;


$$

LAZ001-002-221900-
NORTHWEST LOUISIANA

CITY           SKY/WX    TMP DP  RH WIND       PRES   REMARKS
SHREVEPORT     MOSUNNY   91  71  51 SW9       30.08F HX  97
6HR MIN TEMP:  77; 6HR MAX TEMP:  91;

BARKSDALE AFB  SUNNY     91  72  52 SW2       30.08F HX  98
6HR MIN TEMP:  75; 6HR MAX TEMP:  91;

DTN SHREVEPORT SUNNY     91  73  55 W7        30.08F HX  99
6HR MIN TEMP:  77; 6HR MAX TEMP:  91;


$$

LAZ014-016-221900-
NORTHEAST LOUISIANA

CITY           SKY/WX    TMP DP  RH WIND       PRES   REMARKS
MONROE         SUNNY     91  73  55 VRB3      30.10F HX  99
6HR MIN TEMP:  71; 6HR MAX TEMP:  91;

TALLULAH       SUNNY     91  73  55 VRB3      30.10F HX  99
6HR MIN TEMP:  71; 6HR MAX TEMP:  91;


$$




USA.gov is the U.S. government's official web portal to all federal, state and local government web resources and services.